ONEWEB-0692, 61600

Orbit data source: Space-Track

ONEWEB-0692, 61600 is a payload satellite owned by Eut. One Web (UK) in LEO that was launched on Sun, 20 Oct 2024 UTC via an FALCON 9 launch vehicle from the Air Force Western Test Range (AFWTR). Payload-class satellites include a variety of spacecraft equipped with specific instruments for various scientific and technological missions. These include communications satellites like Starlink; space stations such as the ISS; scientific satellites like the Hubble; Earth observation satellites from companies like Planet Labs, Umbra, and HawkEye 360; GPS; miniature CubeSats for education and research; and military/defense satellites.

Loading next visibility...
Identifier
61600, 2024-188G
Orbit
LEO
Country
Flag of UKUK
Related business
Manufacturer
One Web
Mission
Operational Commercial Communications
Bus & Motor
ARROW, Unknown motor
Mass
148 kg wet, ~140 kg dry
Launch date (UTC)
2024-10-20 (1 year ago)
Launch vehicle
FALCON 9
Launch site
Air Force Western Test Range (AFWTR)
Object type
Payload
Rocket body
Debris
Shape & HBR
Trap Box + 2 Pan, 6.7 m
Radar Cross Section
3.464 m², Large (>1 m²)

Expand to show TLE details & history
Last TLE update: 19 hours ago

TLE from 19 hours ago
0 ONEWEB-0692
1 61600U 24188G   25348.19654111  .00000523  00000-0  14410-2 0  9998
2 61600  87.8852  57.9312 0001182  72.2201 287.9056 13.11415421 60226
Epoch: 2025-12-14T04:43Z
TLE epoch observation values (Epoch: 2025-12-14T04:43:01.151Z)
Latitude
-0.00003°
Longitude
-95.93652°
Altitude
1,220.302 km
Speed
7.244 km/s
True Right ascension
03h 51m 43s
True Declination
0° 00' 00"
Sunlit
Object was in full shadow at epoch
Visualization orbit readout
Latitude
Unknown
Longitude
Unknown
Altitude
Unknown
Speed
Unknown
Apparent Right ascension
Unknown
Apparent Declination
Unknown
Sunlit
N/A
Visualization observer readout
Local Sidereal Time
22:19:40
Azimuth
Unknown
Elevation
Unknown
Doppler factor
Unknown
Orbital elements
Apogee altitude
1,215.704 km
Perigee altitude
1,213.909 km
Semi-major axis
7,592.944 km
Eccentricity
0.00012
Inclination
87.8852°
RAAN
57.9312°
Arg. of periapsis
72.2201°
True anomaly
287.89271°
Mean anomaly
287.9056°
Eccentric anomaly
287.89916°
Mean motion
3.28041 °/min
Orbital period
109.74 mins
BSTAR
0.001441
Loading maneuver chart data...
Computing Atmospheric mass density...
Loading historical data...
Loading historical data...
Loading historical data...
Loading historical data...
Loading historical data...
Loading historical data...
Loading historical data...

Documentation

Showing up to 5 results
|